Date String (YYYY-MM-DD hh:mm:ss) UTC,Instrument flags,absolute air pressure of the measurement (hPa),sample flow rate (lpm),inlet stack bypass flow (lpm),air temperature of the measurement (°C),ambient temperature measured by the external sensor (°C),aerosol sample conditioner tube jacket temperature (°C),OPC LED temperature (°C),internal box temperature (°C),relative humidity of the measurement (%),span deviation,mass concentration of particles derived from Lorenz-Mie calculation of OPC scattering (μg/m³),mass concentration of particles derived from Lorenz-Mie calculation of OPC scattering (μg/m³),mass concentration of particles derived from Lorenz-Mie calculation of OPC scattering (μg/m³)
DateTimeUTC,F1_M11,P_M11,Q1_M11,Q2_M11,T1_M11,T2_M11,T3_M11,T4_M11,T5_M11,U1_M11,ZSPAN_M11,X0_M11,X2_M11,X1_M11
2024-03-04 15:00:00,SystemResetWarning,0823.6,5.00,000.00,018.8,018.1,000.0,027.2,020.4,13.6,0000.0,0002.66,0000.99,0000.56
2024-03-04 15:01:00,SystemResetWarning,0823.7,5.00,000.00,018.8,018.1,000.0,027.2,020.4,13.3,0000.0,0002.66,0001.02,0000.56
2024-03-04 15:02:00,SystemResetWarning,0823.7,5.00,000.00,018.7,018.1,000.0,027.2,020.4,13.3,0000.0,0002.56,0001.00,0000.56
2024-03-04 15:03:00,SystemResetWarning,0823.8,5.00,000.00,018.7,018.1,000.0,027.2,020.4,13.5,0000.0,0002.55,0000.97,0000.56
2024-03-04 15:04:00,SystemResetWarning,0823.8,5.00,000.00,018.7,018.1,000.0,027.2,020.4,13.1,0000.0,0002.60,0000.97,0000.56
2024-03-04 15:05:00,SystemResetWarning,0823.8,5.00,000.00,018.7,018.0,000.0,027.2,020.4,13.1,0000.0,0002.60,0000.96,0000.56
2024-03-04 15:06:00,SystemResetWarning,0823.8,5.00,000.00,018.7,018.0,000.0,027.2,020.3,13.4,0000.0,0002.82,0000.99,0000.56
2024-03-04 15:07:00,SystemResetWarning,0823.7,5.00,000.00,018.7,018.0,000.0,027.2,020.3,13.3,0000.0,0002.83,0000.99,0000.56
2024-03-04 15:08:00,SystemResetWarning,0823.7,5.00,000.00,018.7,018.0,000.0,027.1,020.3,13.1,0000.0,0003.34,0000.98,0000.55
2024-03-04 15:09:00,SystemResetWarning,0823.7,5.01,000.00,018.7,018.0,000.0,027.1,020.3,13.5,0000.0,0003.31,0000.95,0000.54
2024-03-04 15:10:00,SystemResetWarning,0823.7,5.02,000.00,018.7,018.0,000.0,027.1,020.3,13.8,0000.0,0003.09,0000.97,0000.55
2024-03-04 15:11:00,SystemResetWarning,0823.7,5.00,000.00,018.7,018.0,000.0,027.1,020.3,13.8,0000.0,0003.22,0001.02,0000.56
2024-03-04 15:12:00,SystemResetWarning,0823.7,4.99,000.00,018.6,018.0,000.0,027.1,020.3,13.7,0000.0,0004.61,0001.03,0000.56
2024-03-04 15:13:00,SystemResetWarning,0823.7,5.01,000.00,018.6,017.9,000.0,027.1,020.3,13.4,0000.0,0004.74,0001.05,0000.57
2024-03-04 15:14:00,SystemResetWarning,0823.7,5.00,000.00,018.6,017.9,000.0,027.1,020.3,13.1,0000.0,0004.89,0001.08,0000.58
2024-03-04 15:15:00,SystemResetWarning,0823.7,5.00,000.00,018.6,017.9,000.0,027.1,020.3,13.1,0000.0,0004.81,0001.10,0000.58
2024-03-04 15:16:00,SystemResetWarning,0823.7,5.00,000.00,018.6,018.0,000.0,027.1,020.3,13.8,0000.0,0004.77,0001.12,0000.58
2024-03-04 15:17:00,SystemResetWarning,0823.7,5.00,000.00,018.6,018.0,000.0,027.0,020.3,13.3,0000.0,0004.52,0001.10,0000.59
2024-03-04 15:18:00,SystemResetWarning,0823.7,4.99,000.00,018.6,018.0,000.0,027.0,020.2,13.3,0000.0,0004.69,0001.14,0000.60
2024-03-04 15:19:00,SystemResetWarning,0823.7,5.00,000.00,018.6,017.9,000.0,027.0,020.3,13.5,0000.0,0004.22,0001.19,0000.62
2024-03-04 15:20:00,SystemResetWarning,0823.7,5.00,000.00,018.6,017.9,000.0,027.0,020.2,13.2,0000.0,0004.16,0001.19,0000.62
2024-03-04 15:21:00,SystemResetWarning,0823.8,5.00,000.00,018.6,018.0,000.0,027.0,020.3,12.8,0000.0,0004.23,0001.22,0000.63
2024-03-04 15:22:00,SystemResetWarning,0823.6,5.00,000.00,018.6,017.9,000.0,027.0,020.3,12.8,0000.0,0004.18,0001.20,0000.63
2024-03-04 15:23:00,SystemResetWarning,0823.5,5.00,000.00,018.6,017.9,000.0,027.0,020.2,12.8,0000.0,0004.11,0001.18,0000.62
2024-03-04 15:24:00,SystemResetWarning,0823.6,5.01,000.00,018.6,017.9,000.0,027.0,020.2,12.9,0000.0,0003.86,0001.16,0000.61
2024-03-04 15:25:00,SystemResetWarning,0823.7,5.00,000.00,018.6,017.9,000.0,027.0,020.2,12.8,0000.0,0003.53,0001.12,0000.61
2024-03-04 15:26:00,SystemResetWarning,0823.7,5.00,000.00,018.6,017.9,000.0,027.0,020.2,12.9,0000.0,0003.53,0001.12,0000.61
2024-03-04 15:27:00,SystemResetWarning,0823.7,4.99,000.00,018.6,017.9,000.0,027.0,020.2,13.0,0000.0,0003.52,0001.10,0000.61
2024-03-04 15:28:00,SystemResetWarning,0823.7,5.00,000.00,018.5,017.9,000.0,026.9,020.2,12.9,0000.0,0003.81,0001.12,0000.60
2024-03-04 15:29:00,SystemResetWarning,0823.8,5.00,000.00,018.5,017.9,000.0,026.9,020.2,12.9,0000.0,0003.98,0001.11,0000.60
2024-03-04 15:30:00,SystemResetWarning,0823.7,5.00,000.00,018.5,017.9,000.0,026.9,020.2,12.9,0000.0,0003.89,0001.04,0000.59
2024-03-04 15:31:00,SystemResetWarning,0823.6,5.00,000.00,018.5,017.9,000.0,026.9,020.1,12.7,0000.0,0003.84,0001.03,0000.60
2024-03-04 15:32:00,SystemResetWarning,0823.6,5.00,000.00,018.5,017.9,000.0,026.9,020.1,12.8,0000.0,0003.78,0001.04,0000.59
2024-03-04 15:33:00,SystemResetWarning,0823.7,5.00,000.00,018.5,017.9,000.0,026.9,020.2,13.2,0000.0,0003.76,0001.03,0000.59
2024-03-04 15:34:00,SystemResetWarning,0823.8,5.00,000.00,018.5,017.9,000.0,026.9,020.1,13.1,0000.0,0002.85,0001.03,0000.59
2024-03-04 15:35:00,SystemResetWarning,0823.7,5.00,000.00,018.5,017.9,000.0,026.9,020.2,13.1,0000.0,0002.42,0001.06,0000.60
2024-03-04 15:36:00,SystemResetWarning,0823.7,4.99,000.00,018.5,017.9,000.0,026.9,020.1,13.1,0000.0,0002.50,0001.09,0000.59
2024-03-04 15:37:00,SystemResetWarning,0823.7,5.00,000.00,018.5,017.9,000.0,026.9,020.1,13.1,0000.0,0002.50,0001.10,0000.60
2024-03-04 15:38:00,SystemResetWarning,0823.7,5.01,000.00,018.5,017.9,000.0,026.9,020.1,13.2,0000.0,0002.51,0001.09,0000.60
2024-03-04 15:39:00,SystemResetWarning,0823.7,5.00,000.00,018.5,017.9,000.0,026.9,020.1,13.2,0000.0,0002.37,0001.07,0000.58
2024-03-04 15:40:00,SystemResetWarning,0823.5,4.99,000.00,018.5,017.9,000.0,026.9,020.1,13.2,0000.0,0002.03,0001.04,0000.58
2024-03-04 15:41:00,SystemResetWarning,0823.5,5.00,000.00,018.5,018.0,000.0,026.9,020.2,13.2,0000.0,0001.88,0001.04,0000.57
2024-03-04 15:42:00,SystemResetWarning,0823.6,5.01,000.00,018.5,018.0,000.0,026.9,020.2,13.2,0000.0,0001.88,0001.01,0000.55
2024-03-04 15:43:00,SystemResetWarning,0823.6,5.01,000.00,018.5,018.0,000.0,026.9,020.2,13.2,0000.0,0001.85,0000.97,0000.54
2024-03-04 15:44:00,SystemResetWarning,0823.5,5.00,000.00,018.5,018.0,000.0,026.9,020.2,13.3,0000.0,0002.04,0000.94,0000.53
2024-03-04 15:45:00,SystemResetWarning,0823.4,5.00,000.00,018.5,018.0,000.0,026.9,020.2,13.3,0000.0,0003.32,0000.91,0000.53
2024-03-04 15:46:00,SystemResetWarning,0823.5,4.99,000.00,018.5,018.0,000.0,026.9,020.2,13.4,0000.0,0003.28,0000.88,0000.52
2024-03-04 15:47:00,SystemResetWarning,0823.6,5.00,000.00,018.5,018.0,000.0,026.9,020.2,13.6,0000.0,0003.45,0000.88,0000.52
2024-03-04 15:48:00,SystemResetWarning,0823.7,5.01,000.00,018.6,018.0,000.0,026.9,020.2,13.6,0000.0,0004.18,0000.88,0000.51
2024-03-04 15:49:00,SystemResetWarning,0823.6,5.00,000.00,018.6,018.0,000.0,026.9,020.2,13.8,0000.0,0004.82,0000.86,0000.50
2024-03-04 15:50:00,SystemResetWarning,0823.6,4.99,000.00,018.6,018.0,000.0,026.9,020.2,13.8,0000.0,0004.76,0000.84,0000.50
2024-03-04 15:51:00,SystemResetWarning,0823.7,5.00,000.00,018.6,018.0,000.0,026.9,020.2,13.7,0000.0,0004.82,0000.86,0000.52
2024-03-04 15:52:00,SystemResetWarning,0823.7,5.00,000.00,018.6,018.0,000.0,026.9,020.2,13.8,0000.0,0004.91,0000.88,0000.52
2024-03-04 15:53:00,SystemResetWarning,0823.7,5.01,000.00,018.6,018.0,000.0,026.9,020.2,13.7,0000.0,0005.60,0000.92,0000.53
2024-03-04 15:54:00,SystemResetWarning,0823.6,5.00,000.00,018.6,018.0,000.0,026.9,020.2,13.7,0000.0,0006.43,0000.95,0000.53
2024-03-04 15:55:00,SystemResetWarning,0823.6,4.99,000.00,018.6,018.0,000.0,026.9,020.2,13.8,0000.0,0006.65,0000.98,0000.54
2024-03-04 15:56:00,SystemResetWarning,0823.6,4.99,000.00,018.6,018.0,000.0,026.9,020.2,13.6,0000.0,0005.47,0000.99,0000.54
2024-03-04 15:57:00,SystemResetWarning,0823.6,5.01,000.00,018.6,018.0,000.0,026.9,020.2,13.6,0000.0,0005.47,0001.01,0000.55
2024-03-04 15:58:00,SystemResetWarning,0823.6,5.00,000.00,018.6,018.0,000.0,026.9,020.2,13.8,0000.0,0005.30,0000.97,0000.54
2024-03-04 15:59:00,SystemResetWarning,0823.6,5.00,000.00,018.6,018.1,000.0,026.9,020.2,14.1,0000.0,0005.20,0000.96,0000.55
